EZY42LZ EGGD-LYTV

Flight info

Callsign EZY42LZ
Flight time 2h 44m
Altitude 37000
Route YORQI DCT NUCHU L607 KONAN DCT KOK DCT RITAX DCT KRH DCT UTABA DCT BEMKI DCT ELMEM DCT DIRAB DCT VESAL DCT PEVAL DCT NERRA DCT BIGLO L187 TAZ
Aircraft A320/M-SDE2E3FGHIJ1RWXYZ/LB1

Departure

Time 2026-05-06 16:19
Airport Bristol Airport (EGGD)

Arrival

Time 2026-05-06 19:03
Airport Tivat Airport (LYTV)
Time Latitude Longitude Altitude Speed Heading
2026-05-06 15:58 51.38547 -2.71416 613 ft 0 kts 356°
2026-05-06 16:07 51.38540 -2.71415 624 ft 4 kts 356°
2026-05-06 16:07 51.38513 -2.71413 613 ft 4 kts 356°
2026-05-06 16:08 51.38486 -2.71410 619 ft 4 kts 356°
2026-05-06 16:08 51.38465 -2.71408 623 ft 4 kts 338°
2026-05-06 16:08 51.38449 -2.71384 623 ft 4 kts 275°
2026-05-06 16:08 51.38449 -2.71358 628 ft 0 kts 266°
2026-05-06 16:11 51.38449 -2.71359 613 ft 1 kts 266°
2026-05-06 16:12 51.38448 -2.71392 620 ft 3 kts 265°
2026-05-06 16:12 51.38446 -2.71425 613 ft 2 kts 266°
2026-05-06 16:12 51.38446 -2.71448 613 ft 2 kts 267°
2026-05-06 16:12 51.38444 -2.71500 610 ft 8 kts 269°
2026-05-06 16:13 51.38441 -2.71597 619 ft 9 kts 266°
2026-05-06 16:13 51.38436 -2.71705 617 ft 10 kts 266°
2026-05-06 16:13 51.38432 -2.71807 606 ft 9 kts 266°
2026-05-06 16:13 51.38428 -2.71895 611 ft 7 kts 266°
2026-05-06 16:14 51.38425 -2.71968 613 ft 6 kts 266°
2026-05-06 16:14 51.38427 -2.72028 612 ft 6 kts 275°
2026-05-06 16:14 51.38428 -2.72105 616 ft 7 kts 270°
2026-05-06 16:14 51.38427 -2.72173 617 ft 5 kts 268°
2026-05-06 16:15 51.38426 -2.72222 619 ft 7 kts 267°
2026-05-06 16:15 51.38421 -2.72344 610 ft 15 kts 265°
2026-05-06 16:15 51.38412 -2.72551 619 ft 22 kts 266°
2026-05-06 16:15 51.38402 -2.72817 607 ft 26 kts 266°
2026-05-06 16:16 51.38392 -2.73093 605 ft 13 kts 266°
2026-05-06 16:16 51.38391 -2.73121 606 ft 0 kts 265°
2026-05-06 16:17 51.38389 -2.73160 608 ft 10 kts 267°
2026-05-06 16:17 51.38359 -2.73311 626 ft 16 kts 224°
2026-05-06 16:18 51.38278 -2.73339 619 ft 9 kts 175°
2026-05-06 16:18 51.38228 -2.73309 627 ft 10 kts 153°
2026-05-06 16:18 51.38216 -2.73276 623 ft 0 kts 94°
2026-05-06 16:18 51.38218 -2.73187 629 ft 32 kts 87°
2026-05-06 16:19 51.38251 -2.72380 627 ft 110 kts 86°
2026-05-06 16:19 51.38317 -2.70797 654 ft 167 kts 86°
2026-05-06 16:19 51.38379 -2.68972 1506 ft 164 kts 85°
2026-05-06 16:19 51.38433 -2.67136 2269 ft 168 kts 84°
2026-05-06 16:20 51.38495 -2.65157 2587 ft 189 kts 86°
2026-05-06 16:20 51.38565 -2.62929 2852 ft 213 kts 85°
2026-05-06 16:20 51.38642 -2.60458 3203 ft 237 kts 85°
2026-05-06 16:20 51.38746 -2.57717 3740 ft 254 kts 80°
2026-05-06 16:21 51.39453 -2.55145 4491 ft 258 kts 46°
2026-05-06 16:21 51.40917 -2.53477 5319 ft 261 kts 28°
2026-05-06 16:21 51.42510 -2.52031 6168 ft 266 kts 27°
2026-05-06 16:21 51.44145 -2.50587 6934 ft 271 kts 28°
2026-05-06 16:22 51.45791 -2.49090 7761 ft 274 kts 29°
2026-05-06 16:22 51.47427 -2.47501 8593 ft 277 kts 30°
2026-05-06 16:22 51.49070 -2.45857 9419 ft 280 kts 30°
2026-05-06 16:22 51.50642 -2.43979 10185 ft 286 kts 46°
2026-05-06 16:23 51.51659 -2.41262 10875 ft 294 kts 71°
2026-05-06 16:23 51.51899 -2.37979 11501 ft 305 kts 92°
2026-05-06 16:23 51.51700 -2.34459 11702 ft 328 kts 95°
2026-05-06 16:23 51.51440 -2.30715 12078 ft 343 kts 95°
2026-05-06 16:24 51.51153 -2.26878 12720 ft 349 kts 96°
2026-05-06 16:24 51.50860 -2.22991 13399 ft 353 kts 96°
2026-05-06 16:24 51.50570 -2.19058 14049 ft 357 kts 96°
2026-05-06 16:24 51.50286 -2.15086 14659 ft 360 kts 96°
2026-05-06 16:25 51.50006 -2.11074 15246 ft 363 kts 96°
2026-05-06 16:25 51.49731 -2.07080 15848 ft 367 kts 96°
2026-05-06 16:25 51.49447 -2.02993 16453 ft 370 kts 96°
2026-05-06 16:25 51.49156 -1.98873 17057 ft 374 kts 96°
2026-05-06 16:26 51.48858 -1.94708 17644 ft 377 kts 96°
2026-05-06 16:26 51.48555 -1.90513 18217 ft 381 kts 96°
2026-05-06 16:26 51.48250 -1.86272 18694 ft 385 kts 96°
2026-05-06 16:26 51.47938 -1.81983 19168 ft 389 kts 96°
2026-05-06 16:27 51.47621 -1.77659 19671 ft 392 kts 96°
2026-05-06 16:27 51.47304 -1.73303 20183 ft 395 kts 96°
2026-05-06 16:27 51.46988 -1.68970 20661 ft 398 kts 97°
2026-05-06 16:27 51.46488 -1.64600 21128 ft 401 kts 102°
2026-05-06 16:28 51.45894 -1.60216 21610 ft 403 kts 103°
2026-05-06 16:28 51.45291 -1.55816 22077 ft 406 kts 103°
2026-05-06 16:28 51.44678 -1.51382 22538 ft 409 kts 103°
2026-05-06 16:28 51.44060 -1.46907 22992 ft 412 kts 103°
2026-05-06 16:29 51.43441 -1.42414 23437 ft 415 kts 103°
2026-05-06 16:29 51.42816 -1.37882 23821 ft 418 kts 103°
2026-05-06 16:29 51.42187 -1.33321 24200 ft 420 kts 103°
2026-05-06 16:29 51.41561 -1.28797 24564 ft 423 kts 103°
2026-05-06 16:30 51.40920 -1.24191 24945 ft 425 kts 103°
2026-05-06 16:30 51.40702 -1.22631 25070 ft 425 kts 103°
2026-05-06 16:30 51.39668 -1.14902 25672 ft 429 kts 98°
2026-05-06 16:30 51.39383 -1.10141 26025 ft 431 kts 95°
2026-05-06 16:31 51.39148 -1.05342 26382 ft 433 kts 95°
2026-05-06 16:31 51.38905 -1.00517 26733 ft 435 kts 95°
2026-05-06 16:31 51.38657 -0.95686 27081 ft 437 kts 95°
2026-05-06 16:31 51.38404 -0.90829 27444 ft 439 kts 95°
2026-05-06 16:32 51.38150 -0.86017 27793 ft 440 kts 95°
2026-05-06 16:32 51.37890 -0.81127 28122 ft 443 kts 95°
2026-05-06 16:32 51.37626 -0.76207 28465 ft 444 kts 95°
2026-05-06 16:32 51.37361 -0.71271 28795 ft 446 kts 95°
2026-05-06 16:33 51.37094 -0.66306 29108 ft 449 kts 95°
2026-05-06 16:33 51.36825 -0.61317 29431 ft 450 kts 95°
2026-05-06 16:33 51.36554 -0.56320 29729 ft 453 kts 95°
2026-05-06 16:34 51.35990 -0.46248 30284 ft 456 kts 95°
2026-05-06 16:34 51.35703 -0.41182 30507 ft 458 kts 95°
2026-05-06 16:34 51.35417 -0.36097 30749 ft 460 kts 95°
2026-05-06 16:34 51.35129 -0.31004 31013 ft 460 kts 95°
2026-05-06 16:35 51.34843 -0.26053 31337 ft 459 kts 95°
2026-05-06 16:35 51.34548 -0.21032 31669 ft 459 kts 96°
2026-05-06 16:35 51.34249 -0.15955 31998 ft 458 kts 95°
2026-05-06 16:35 51.33950 -0.10887 32324 ft 457 kts 96°
2026-05-06 16:36 51.33649 -0.05824 32650 ft 457 kts 95°
2026-05-06 16:36 51.33361 -0.00996 32977 ft 456 kts 95°
2026-05-06 16:36 51.33052 0.04036 33350 ft 454 kts 96°
2026-05-06 16:36 51.32675 0.09051 33685 ft 453 kts 97°
2026-05-06 16:37 51.32227 0.14033 34006 ft 453 kts 99°
2026-05-06 16:37 51.31736 0.18922 34276 ft 452 kts 99°
2026-05-06 16:37 51.31274 0.23379 34495 ft 452 kts 99°
2026-05-06 16:37 51.30766 0.28338 34720 ft 452 kts 99°
2026-05-06 16:38 51.30269 0.33309 34951 ft 453 kts 99°
2026-05-06 16:38 51.29783 0.38271 35168 ft 453 kts 99°
2026-05-06 16:38 51.29303 0.43249 35377 ft 453 kts 99°
2026-05-06 16:38 51.28827 0.48218 35586 ft 453 kts 99°
2026-05-06 16:39 51.28513 0.51519 35722 ft 453 kts 99°
2026-05-06 16:39 51.28037 0.56493 35919 ft 454 kts 99°
2026-05-06 16:39 51.27554 0.61467 36119 ft 454 kts 99°
2026-05-06 16:39 51.26903 0.68064 36380 ft 454 kts 99°
2026-05-06 16:40 51.26408 0.73043 36560 ft 454 kts 99°
2026-05-06 16:40 51.25909 0.78018 36747 ft 454 kts 99°
2026-05-06 16:40 51.25571 0.81374 36873 ft 454 kts 99°
2026-05-06 16:41 51.24573 0.91256 36975 ft 453 kts 99°
2026-05-06 16:41 51.23565 1.01178 36967 ft 453 kts 99°
2026-05-06 16:42 51.22563 1.11088 36969 ft 453 kts 99°
2026-05-06 16:42 51.21547 1.20991 36968 ft 452 kts 100°
2026-05-06 16:43 51.20524 1.30816 36969 ft 453 kts 100°
2026-05-06 16:43 51.19484 1.40721 36967 ft 453 kts 100°
2026-05-06 16:44 51.18436 1.50607 36968 ft 452 kts 100°
2026-05-06 16:44 51.17380 1.60497 36968 ft 452 kts 100°
2026-05-06 16:45 51.16149 1.71968 36963 ft 452 kts 101°
2026-05-06 16:45 51.15254 1.80236 36964 ft 452 kts 101°
2026-05-06 16:46 51.14173 1.90101 36973 ft 452 kts 101°
2026-05-06 16:46 51.13103 1.99897 36969 ft 452 kts 98°
2026-05-06 16:47 51.12555 2.09877 36968 ft 453 kts 95°
2026-05-06 16:47 51.12025 2.19871 36968 ft 453 kts 96°
2026-05-06 16:48 51.11476 2.29863 36954 ft 453 kts 96°
2026-05-06 16:48 51.10921 2.39858 36948 ft 453 kts 96°
2026-05-06 16:49 51.10358 2.49762 36946 ft 453 kts 96°
2026-05-06 16:49 51.09787 2.59739 36951 ft 453 kts 97°
2026-05-06 16:50 51.08199 2.69346 36942 ft 449 kts 116°
2026-05-06 16:50 51.05487 2.78288 36943 ft 449 kts 117°
2026-05-06 16:51 51.02769 2.87230 36946 ft 450 kts 117°
2026-05-06 16:51 51.00067 2.96114 36949 ft 450 kts 117°
2026-05-06 16:52 50.97332 3.05041 36950 ft 450 kts 117°
2026-05-06 16:52 50.94587 3.13952 36941 ft 449 kts 118°
2026-05-06 16:53 50.91839 3.22841 36927 ft 449 kts 117°
2026-05-06 16:53 50.89106 3.31672 36931 ft 449 kts 117°
2026-05-06 16:54 50.86346 3.40548 36924 ft 449 kts 118°
2026-05-06 16:54 50.83585 3.49396 36927 ft 448 kts 118°
2026-05-06 16:55 50.80826 3.58207 36921 ft 448 kts 118°
2026-05-06 16:55 50.78069 3.66968 36921 ft 447 kts 118°
2026-05-06 16:56 50.75291 3.75751 36908 ft 447 kts 118°
2026-05-06 16:56 50.72507 3.84532 36910 ft 447 kts 118°
2026-05-06 16:57 50.69727 3.93311 36913 ft 447 kts 118°
2026-05-06 16:57 50.66932 4.02083 36915 ft 447 kts 118°
2026-05-06 16:58 50.64121 4.10839 36913 ft 448 kts 118°
2026-05-06 16:58 50.61312 4.19585 36911 ft 448 kts 118°
2026-05-06 16:59 50.58513 4.28276 36910 ft 448 kts 118°
2026-05-06 16:59 50.55692 4.37004 36906 ft 448 kts 118°
2026-05-06 17:00 50.52869 4.45726 36904 ft 447 kts 118°
2026-05-06 17:00 50.50039 4.54419 36906 ft 447 kts 119°
2026-05-06 17:01 50.47214 4.63041 36908 ft 447 kts 119°
2026-05-06 17:01 50.45801 4.67354 36760 ft 442 kts 121°
2026-05-06 17:01 50.44396 4.71635 36893 ft 441 kts 121°
2026-05-06 17:02 50.41583 4.80206 36914 ft 442 kts 121°
2026-05-06 17:02 50.38762 4.88747 36914 ft 441 kts 121°
2026-05-06 17:03 50.35939 4.97245 36918 ft 440 kts 121°
2026-05-06 17:03 50.33129 5.05683 36914 ft 440 kts 121°
2026-05-06 17:04 50.30306 5.14164 36903 ft 439 kts 122°
2026-05-06 17:04 50.27481 5.22615 36913 ft 438 kts 122°
2026-05-06 17:05 50.24653 5.31031 36917 ft 437 kts 122°
2026-05-06 17:05 50.21829 5.39414 36910 ft 436 kts 122°
2026-05-06 17:06 50.19017 5.47726 36912 ft 436 kts 122°
2026-05-06 17:06 50.16181 5.56076 36889 ft 435 kts 122°
2026-05-06 17:07 50.13342 5.64412 36895 ft 435 kts 122°
2026-05-06 17:07 50.10499 5.72744 36887 ft 436 kts 122°
2026-05-06 17:08 50.07665 5.81010 36886 ft 435 kts 123°
2026-05-06 17:08 50.04702 5.89212 36877 ft 434 kts 124°
2026-05-06 17:09 50.01645 5.97310 36872 ft 434 kts 124°
2026-05-06 17:09 49.98587 6.05393 36870 ft 434 kts 124°
2026-05-06 17:10 49.95551 6.13484 36880 ft 433 kts 124°
2026-05-06 17:10 49.92541 6.21512 36860 ft 433 kts 124°
2026-05-06 17:11 49.89502 6.29586 36870 ft 433 kts 124°
2026-05-06 17:11 49.86459 6.37651 36843 ft 433 kts 124°
2026-05-06 17:12 49.83414 6.45712 36853 ft 433 kts 124°
2026-05-06 17:12 49.80356 6.53756 36844 ft 434 kts 124°
2026-05-06 17:13 49.77308 6.61734 36836 ft 433 kts 124°
2026-05-06 17:13 49.74232 6.69744 36833 ft 433 kts 124°
2026-05-06 17:14 49.71158 6.77755 36818 ft 433 kts 125°
2026-05-06 17:14 49.68084 6.85750 36820 ft 433 kts 125°
2026-05-06 17:15 49.65026 6.93685 36831 ft 433 kts 125°
2026-05-06 17:15 49.61935 7.01665 36832 ft 433 kts 125°
2026-05-06 17:16 49.58838 7.09632 36833 ft 433 kts 125°
2026-05-06 17:16 49.55739 7.17600 36833 ft 433 kts 125°
2026-05-06 17:17 49.52654 7.25494 36820 ft 433 kts 125°
2026-05-06 17:17 49.49542 7.33429 36821 ft 433 kts 125°
2026-05-06 17:18 49.46424 7.41356 36834 ft 433 kts 125°
2026-05-06 17:18 49.43308 7.49263 36835 ft 433 kts 125°
2026-05-06 17:19 49.40203 7.57104 36817 ft 432 kts 125°
2026-05-06 17:19 49.37078 7.64986 36795 ft 432 kts 126°
2026-05-06 17:20 49.33950 7.72864 36805 ft 433 kts 126°
2026-05-06 17:20 49.30804 7.80736 36808 ft 433 kts 126°
2026-05-06 17:21 49.27671 7.88549 36819 ft 433 kts 126°
2026-05-06 17:21 49.24517 7.96405 36819 ft 433 kts 126°
2026-05-06 17:22 49.21360 8.04258 36813 ft 433 kts 126°
2026-05-06 17:22 49.18202 8.12099 36819 ft 433 kts 126°
2026-05-06 17:23 49.15027 8.19927 36829 ft 433 kts 126°
2026-05-06 17:23 49.11869 8.27690 36832 ft 433 kts 126°
2026-05-06 17:24 49.08688 8.35508 36839 ft 433 kts 126°
2026-05-06 17:24 49.05504 8.43313 36836 ft 433 kts 126°
2026-05-06 17:25 49.02310 8.51092 36842 ft 433 kts 126°
2026-05-06 17:25 48.98850 8.58551 36839 ft 427 kts 137°
2026-05-06 17:26 48.94408 8.64324 36841 ft 422 kts 145°
2026-05-06 17:26 48.89804 8.69885 36843 ft 423 kts 145°
2026-05-06 17:27 48.85196 8.75444 36847 ft 423 kts 145°
2026-05-06 17:27 48.82887 8.78226 36971 ft 425 kts 146°
2026-05-06 17:27 48.80559 8.81022 36842 ft 426 kts 146°
2026-05-06 17:28 48.75911 8.86599 36825 ft 426 kts 146°
2026-05-06 17:28 48.71243 8.92178 36821 ft 428 kts 146°
2026-05-06 17:29 48.66592 8.97726 36824 ft 429 kts 146°
2026-05-06 17:29 48.61901 9.03314 36830 ft 430 kts 146°
2026-05-06 17:30 48.57200 9.08895 36834 ft 430 kts 146°
2026-05-06 17:30 48.52491 9.14463 36826 ft 430 kts 146°
2026-05-06 17:31 48.47817 9.19979 36854 ft 429 kts 146°
2026-05-06 17:31 48.43113 9.25523 36863 ft 429 kts 146°
2026-05-06 17:32 48.38411 9.31054 36874 ft 429 kts 146°
2026-05-06 17:32 48.33708 9.36568 36875 ft 429 kts 146°
2026-05-06 17:33 48.29033 9.42043 36873 ft 429 kts 146°
2026-05-06 17:33 48.24333 9.47545 36834 ft 429 kts 146°
2026-05-06 17:34 48.19693 9.53215 36846 ft 431 kts 144°
2026-05-06 17:34 48.15087 9.58971 36863 ft 431 kts 144°
2026-05-06 17:35 48.10460 9.64688 36866 ft 431 kts 145°
2026-05-06 17:35 48.05844 9.70336 36871 ft 431 kts 145°
2026-05-06 17:36 47.98867 9.78832 36870 ft 431 kts 145°
2026-05-06 17:36 47.94221 9.84487 36858 ft 431 kts 146°
2026-05-06 17:37 47.89604 9.90089 36869 ft 430 kts 146°
2026-05-06 17:37 47.84960 9.95715 36879 ft 430 kts 146°
2026-05-06 17:38 47.80316 10.01319 36888 ft 430 kts 146°
2026-05-06 17:38 47.75672 10.06913 36890 ft 429 kts 146°
2026-05-06 17:39 47.71031 10.12491 36895 ft 429 kts 146°
2026-05-06 17:39 47.66431 10.18018 36894 ft 428 kts 146°
2026-05-06 17:40 47.61802 10.23570 36900 ft 427 kts 146°
2026-05-06 17:40 47.57186 10.29071 36888 ft 421 kts 146°
2026-05-06 17:41 47.54867 10.31619 36890 ft 408 kts 152°
2026-05-06 17:41 47.52513 10.33912 36889 ft 406 kts 152°
2026-05-06 17:41 47.47825 10.38461 36894 ft 406 kts 152°
2026-05-06 17:42 47.43097 10.43036 36880 ft 406 kts 152°
2026-05-06 17:42 47.38374 10.47609 36881 ft 406 kts 152°
2026-05-06 17:43 47.33648 10.52180 36853 ft 406 kts 152°
2026-05-06 17:43 47.28920 10.56723 36849 ft 406 kts 153°
2026-05-06 17:44 47.24283 10.61404 36844 ft 408 kts 150°
2026-05-06 17:44 47.19686 10.66322 36827 ft 409 kts 149°
2026-05-06 17:45 47.15085 10.71232 36831 ft 409 kts 150°
2026-05-06 17:45 47.10455 10.76087 36798 ft 408 kts 150°
2026-05-06 17:46 47.05839 10.80882 36838 ft 411 kts 150°
2026-05-06 17:46 47.01149 10.85742 36853 ft 413 kts 150°
2026-05-06 17:47 46.96409 10.90660 36848 ft 423 kts 150°
2026-05-06 17:47 46.91585 10.95674 36865 ft 427 kts 150°
2026-05-06 17:48 46.86726 11.00702 36871 ft 428 kts 150°
2026-05-06 17:48 46.81917 11.05734 36881 ft 431 kts 146°
2026-05-06 17:49 46.77652 11.12047 36887 ft 439 kts 139°
2026-05-06 17:49 46.73476 11.18555 36894 ft 439 kts 139°
2026-05-06 17:50 46.69301 11.25034 36894 ft 439 kts 139°
2026-05-06 17:50 46.65141 11.31466 36875 ft 438 kts 139°
2026-05-06 17:51 46.60964 11.37927 36871 ft 438 kts 140°
2026-05-06 17:51 46.56787 11.44375 36850 ft 438 kts 140°
2026-05-06 17:52 46.52615 11.50804 36860 ft 437 kts 140°
2026-05-06 17:52 46.48465 11.57169 36866 ft 437 kts 140°
2026-05-06 17:53 46.44284 11.63566 36869 ft 437 kts 140°
2026-05-06 17:53 46.40105 11.69952 36895 ft 437 kts 140°
2026-05-06 17:54 46.35884 11.76287 36898 ft 437 kts 141°
2026-05-06 17:54 46.31627 11.82464 36910 ft 436 kts 142°
2026-05-06 17:55 46.27325 11.88653 36912 ft 436 kts 142°
2026-05-06 17:55 46.23041 11.94850 36913 ft 436 kts 141°
2026-05-06 17:56 46.18760 12.01057 36919 ft 436 kts 141°
2026-05-06 17:56 46.14473 12.07257 36893 ft 436 kts 142°
2026-05-06 17:57 46.10212 12.13384 36909 ft 436 kts 142°
2026-05-06 17:57 46.05917 12.19551 36915 ft 436 kts 142°
2026-05-06 17:58 46.01625 12.25708 36914 ft 436 kts 142°
2026-05-06 17:58 45.97327 12.31855 36909 ft 436 kts 142°
2026-05-06 17:59 45.93017 12.37992 36898 ft 436 kts 142°
2026-05-06 17:59 45.88731 12.44081 36895 ft 437 kts 142°
2026-05-06 18:00 45.84408 12.50219 36897 ft 437 kts 142°
2026-05-06 18:00 45.80086 12.56356 36897 ft 437 kts 142°
2026-05-06 18:01 45.75756 12.62483 36899 ft 437 kts 142°
2026-05-06 18:01 45.71417 12.68602 36862 ft 438 kts 142°
2026-05-06 18:02 45.67068 12.74718 36865 ft 439 kts 142°
2026-05-06 18:02 45.62738 12.80797 36870 ft 440 kts 142°
2026-05-06 18:03 45.58367 12.86922 36873 ft 440 kts 142°
2026-05-06 18:03 45.53992 12.93031 36877 ft 440 kts 142°
2026-05-06 18:04 45.49618 12.99143 36858 ft 440 kts 142°
2026-05-06 18:04 45.45260 13.05204 36877 ft 440 kts 142°
2026-05-06 18:05 45.40871 13.11288 36883 ft 441 kts 142°
2026-05-06 18:05 45.36480 13.17367 36903 ft 440 kts 143°
2026-05-06 18:06 45.32089 13.23436 36904 ft 441 kts 141°
2026-05-06 18:06 45.28227 13.30328 36887 ft 449 kts 133°
2026-05-06 18:07 45.24553 13.37419 36912 ft 449 kts 133°
2026-05-06 18:07 45.20842 13.44524 36917 ft 449 kts 133°
2026-05-06 18:08 45.17120 13.51630 36923 ft 449 kts 133°
2026-05-06 18:08 45.13391 13.58727 36882 ft 449 kts 133°
2026-05-06 18:09 45.09682 13.65770 36900 ft 450 kts 133°
2026-05-06 18:09 45.05940 13.72871 36917 ft 450 kts 133°
2026-05-06 18:10 45.02187 13.79965 36945 ft 450 kts 133°
2026-05-06 18:10 44.98431 13.87042 36947 ft 450 kts 133°
2026-05-06 18:11 44.94672 13.94120 36938 ft 450 kts 132°
2026-05-06 18:11 44.90936 14.01136 36948 ft 450 kts 133°
2026-05-06 18:12 44.87165 14.08186 36953 ft 450 kts 133°
2026-05-06 18:12 44.83389 14.15233 36956 ft 451 kts 133°
2026-05-06 18:13 44.79607 14.22288 36938 ft 451 kts 132°
2026-05-06 18:13 44.75823 14.29322 36962 ft 451 kts 132°
2026-05-06 18:14 44.72061 14.36293 36970 ft 450 kts 133°
2026-05-06 18:14 44.68270 14.43307 36980 ft 450 kts 133°
2026-05-06 18:15 44.64483 14.50301 36951 ft 450 kts 133°
2026-05-06 18:15 44.60681 14.57293 36953 ft 451 kts 133°
2026-05-06 18:16 44.56867 14.64284 36960 ft 451 kts 133°
2026-05-06 18:16 44.53075 14.71228 36966 ft 452 kts 133°
2026-05-06 18:17 44.49250 14.78215 36982 ft 452 kts 133°
2026-05-06 18:17 44.45423 14.85200 36986 ft 452 kts 133°
2026-05-06 18:18 44.41595 14.92177 36993 ft 452 kts 133°
2026-05-06 18:18 44.37755 14.99136 36968 ft 452 kts 134°
2026-05-06 18:19 44.33932 15.06037 36977 ft 452 kts 134°
2026-05-06 18:19 44.30077 15.12986 36965 ft 453 kts 134°
2026-05-06 18:20 44.26218 15.19944 36981 ft 453 kts 134°
2026-05-06 18:20 44.22353 15.26893 36986 ft 454 kts 134°
2026-05-06 18:21 44.18473 15.33844 36992 ft 454 kts 134°
2026-05-06 18:21 44.14616 15.40737 36975 ft 454 kts 134°
2026-05-06 18:22 44.10730 15.47683 36973 ft 455 kts 134°
2026-05-06 18:22 44.06830 15.54638 36973 ft 456 kts 134°
2026-05-06 18:23 44.02914 15.61592 36984 ft 457 kts 134°
2026-05-06 18:23 43.99016 15.68486 36972 ft 457 kts 134°
2026-05-06 18:24 43.95087 15.75424 36980 ft 457 kts 134°
2026-05-06 18:24 43.91151 15.82364 36989 ft 458 kts 134°
2026-05-06 18:25 43.87204 15.89305 36975 ft 458 kts 134°
2026-05-06 18:25 43.83256 15.96237 36993 ft 459 kts 134°
2026-05-06 18:26 43.79313 16.03118 36985 ft 459 kts 134°
2026-05-06 18:26 43.75340 16.10040 36995 ft 460 kts 134°
2026-05-06 18:27 43.71368 16.16976 37001 ft 461 kts 134°
2026-05-06 18:27 43.67383 16.23906 37016 ft 461 kts 134°
2026-05-06 18:28 43.63406 16.30781 37022 ft 461 kts 134°
2026-05-06 18:28 43.59401 16.37695 37011 ft 461 kts 135°
2026-05-06 18:29 43.55395 16.44611 37008 ft 462 kts 135°
2026-05-06 18:29 43.51377 16.51531 37016 ft 462 kts 135°
2026-05-06 18:30 43.47356 16.58442 37039 ft 463 kts 135°
2026-05-06 18:30 43.43349 16.65300 37043 ft 463 kts 135°
2026-05-06 18:31 43.39309 16.72196 37039 ft 463 kts 135°
2026-05-06 18:31 43.35267 16.79093 37021 ft 464 kts 135°
2026-05-06 18:32 43.31209 16.85998 37029 ft 465 kts 135°
2026-05-06 18:32 43.27172 16.92851 37017 ft 465 kts 135°
2026-05-06 18:33 43.23093 16.99748 37020 ft 465 kts 135°
2026-05-06 18:33 43.19010 17.06638 37008 ft 466 kts 135°
2026-05-06 18:34 43.14917 17.13540 37014 ft 467 kts 135°
2026-05-06 18:34 43.10846 17.20403 37010 ft 468 kts 135°
2026-05-06 18:35 43.06736 17.27311 37024 ft 468 kts 135°
2026-05-06 18:35 43.02612 17.34206 37032 ft 469 kts 135°
2026-05-06 18:36 42.98482 17.41092 36924 ft 468 kts 135°
2026-05-06 18:36 42.96411 17.44532 36262 ft 470 kts 135°
2026-05-06 18:36 42.94332 17.47982 35625 ft 470 kts 135°
2026-05-06 18:37 42.92292 17.51371 35142 ft 467 kts 135°
2026-05-06 18:37 42.90911 17.53684 34814 ft 466 kts 133°
2026-05-06 18:37 42.88481 17.58513 34190 ft 465 kts 129°
2026-05-06 18:37 42.86705 17.62188 33692 ft 462 kts 129°
2026-05-06 18:38 42.84942 17.65822 33206 ft 458 kts 129°
2026-05-06 18:38 42.83193 17.69417 32725 ft 453 kts 129°
2026-05-06 18:38 42.81456 17.72980 32277 ft 449 kts 129°
2026-05-06 18:38 42.79738 17.76504 31787 ft 446 kts 128°
2026-05-06 18:39 42.78027 17.80010 31294 ft 443 kts 128°
2026-05-06 18:39 42.76350 17.83444 30844 ft 440 kts 127°
2026-05-06 18:39 42.74658 17.86906 30380 ft 437 kts 127°
2026-05-06 18:40 42.71314 17.93746 29413 ft 431 kts 127°
2026-05-06 18:40 42.69660 17.97123 28944 ft 427 kts 127°
2026-05-06 18:40 42.68026 18.00456 28492 ft 422 kts 127°
2026-05-06 18:40 42.66401 18.03764 28044 ft 418 kts 127°
2026-05-06 18:41 42.64792 18.07036 27593 ft 414 kts 127°
2026-05-06 18:41 42.63195 18.10271 27172 ft 410 kts 128°
2026-05-06 18:41 42.61610 18.13473 26741 ft 407 kts 128°
2026-05-06 18:41 42.60027 18.16655 26110 ft 419 kts 128°
2026-05-06 18:42 42.58383 18.19948 25621 ft 423 kts 128°
2026-05-06 18:42 42.56741 18.23247 25142 ft 421 kts 127°
2026-05-06 18:42 42.55116 18.26522 24671 ft 417 kts 127°
2026-05-06 18:42 42.53504 18.29788 24204 ft 415 kts 127°
2026-05-06 18:43 42.51907 18.33022 23746 ft 412 kts 127°
2026-05-06 18:43 42.50317 18.36225 23219 ft 408 kts 127°
2026-05-06 18:43 42.48734 18.39404 22682 ft 406 kts 127°
2026-05-06 18:43 42.47180 18.42518 22167 ft 403 kts 127°
2026-05-06 18:44 42.45613 18.45657 21642 ft 401 kts 127°
2026-05-06 18:44 42.44054 18.48777 21141 ft 399 kts 127°
2026-05-06 18:44 42.42504 18.51879 20638 ft 397 kts 127°
2026-05-06 18:44 42.40960 18.54969 20150 ft 395 kts 127°
2026-05-06 18:45 42.39426 18.58031 19668 ft 393 kts 127°
2026-05-06 18:45 42.37893 18.61083 19229 ft 390 kts 127°
2026-05-06 18:45 42.36393 18.64073 19061 ft 380 kts 127°
2026-05-06 18:45 42.35413 18.66026 19078 ft 378 kts 127°
2026-05-06 18:46 42.33444 18.69941 18864 ft 374 kts 128°
2026-05-06 18:46 42.32004 18.72796 18477 ft 372 kts 128°
2026-05-06 18:46 42.30535 18.75655 18022 ft 369 kts 128°
2026-05-06 18:46 42.29054 18.78482 17508 ft 368 kts 129°
2026-05-06 18:47 42.27725 18.81385 16983 ft 360 kts 120°
2026-05-06 18:47 42.26624 18.84368 16471 ft 350 kts 119°
2026-05-06 18:47 42.25567 18.87271 15972 ft 341 kts 119°
2026-05-06 18:47 42.24538 18.90110 15476 ft 333 kts 119°
2026-05-06 18:48 42.23541 18.92864 14992 ft 328 kts 119°
2026-05-06 18:48 42.22545 18.95604 14517 ft 324 kts 119°
2026-05-06 18:48 42.21558 18.98315 14046 ft 320 kts 120°
2026-05-06 18:48 42.20378 19.00826 13546 ft 315 kts 132°
2026-05-06 18:49 42.18859 19.02912 13017 ft 310 kts 144°
2026-05-06 18:49 42.17104 19.04557 12513 ft 305 kts 150°
2026-05-06 18:49 42.15322 19.06105 11998 ft 305 kts 150°
2026-05-06 18:49 42.13542 19.07652 11502 ft 304 kts 150°
2026-05-06 18:50 42.11767 19.09200 11010 ft 303 kts 150°
2026-05-06 18:50 42.09902 19.10433 10537 ft 295 kts 170°
2026-05-06 18:50 42.07961 19.10554 10364 ft 276 kts 192°
2026-05-06 18:50 42.06215 19.09704 10126 ft 262 kts 214°
2026-05-06 18:51 42.04903 19.08102 9858 ft 252 kts 234°
2026-05-06 18:51 42.04113 19.06028 9436 ft 249 kts 248°
2026-05-06 18:51 42.03491 19.03859 8973 ft 249 kts 248°
2026-05-06 18:51 42.02864 19.01698 8515 ft 248 kts 248°
2026-05-06 18:52 42.02244 18.99578 8240 ft 240 kts 248°
2026-05-06 18:52 42.01856 18.98197 7990 ft 237 kts 252°
2026-05-06 18:52 42.01885 18.95305 7431 ft 239 kts 288°
2026-05-06 18:52 42.02802 18.93440 7002 ft 244 kts 316°
2026-05-06 18:53 42.04282 18.92330 6669 ft 245 kts 338°
2026-05-06 18:53 42.05860 18.91537 6470 ft 239 kts 338°
2026-05-06 18:53 42.07409 18.90749 6204 ft 238 kts 337°
2026-05-06 18:53 42.08433 18.90226 6051 ft 236 kts 337°
2026-05-06 18:54 42.09935 18.89459 6000 ft 225 kts 338°
2026-05-06 18:54 42.11390 18.88714 5786 ft 223 kts 337°
2026-05-06 18:54 42.12839 18.87968 5535 ft 223 kts 338°
2026-05-06 18:54 42.14738 18.86989 5291 ft 218 kts 338°
2026-05-06 18:55 42.16152 18.86256 5055 ft 218 kts 338°
2026-05-06 18:55 42.17550 18.85534 4898 ft 210 kts 338°
2026-05-06 18:55 42.18438 18.85077 4811 ft 203 kts 338°
2026-05-06 18:55 42.19738 18.84409 4588 ft 199 kts 338°
2026-05-06 18:56 42.21028 18.83747 4322 ft 197 kts 338°
2026-05-06 18:56 42.22298 18.83091 4065 ft 193 kts 339°
2026-05-06 18:56 42.23519 18.82460 3902 ft 184 kts 339°
2026-05-06 18:56 42.24713 18.81841 3863 ft 183 kts 339°
2026-05-06 18:57 42.25906 18.81224 3763 ft 178 kts 339°
2026-05-06 18:57 42.26998 18.80662 3669 ft 161 kts 339°
2026-05-06 18:57 42.28036 18.80118 3594 ft 161 kts 338°
2026-05-06 18:57 42.29080 18.79579 3388 ft 160 kts 344°
2026-05-06 18:58 42.30129 18.79174 3151 ft 158 kts 347°
2026-05-06 18:58 42.31187 18.78804 2925 ft 156 kts 347°
2026-05-06 18:58 42.32232 18.78421 2686 ft 154 kts 345°
2026-05-06 18:58 42.33272 18.78014 2381 ft 156 kts 345°
2026-05-06 18:59 42.34297 18.77588 2108 ft 156 kts 346°
2026-05-06 18:59 42.35338 18.77092 1755 ft 160 kts 343°
2026-05-06 18:59 42.36360 18.76507 1391 ft 158 kts 336°
2026-05-06 18:59 42.37303 18.75837 1304 ft 155 kts 329°
2026-05-06 19:00 42.38152 18.74953 1299 ft 155 kts 314°
2026-05-06 19:00 42.38693 18.73762 1153 ft 148 kts 290°
2026-05-06 19:00 42.38980 18.72452 1020 ft 144 kts 285°
2026-05-06 19:00 42.39229 18.71146 897 ft 142 kts 285°
2026-05-06 19:01 42.39508 18.69860 871 ft 143 kts 288°
2026-05-06 19:01 42.39825 18.68587 823 ft 143 kts 290°
2026-05-06 19:01 42.40217 18.67362 771 ft 143 kts 308°
2026-05-06 19:01 42.41045 18.66734 816 ft 141 kts 357°
2026-05-06 19:02 42.42007 18.66920 820 ft 140 kts 21°
2026-05-06 19:02 42.42688 18.67773 726 ft 138 kts 69°
2026-05-06 19:02 42.42685 18.69028 626 ft 137 kts 108°
2026-05-06 19:02 42.42260 18.70176 360 ft 135 kts 127°
2026-05-06 19:03 42.41578 18.71007 130 ft 130 kts 137°
2026-05-06 19:03 42.40917 18.71797 24 ft 119 kts 139°
2026-05-06 19:03 42.40428 18.72377 20 ft 56 kts 139°
2026-05-06 19:03 42.40183 18.72666 22 ft 42 kts 139°
2026-05-06 19:04 42.39979 18.72912 19 ft 36 kts 137°
2026-05-06 19:04 42.39802 18.73122 19 ft 32 kts 139°
2026-05-06 19:04 42.39669 18.73245 19 ft 15 kts 162°
2026-05-06 19:04 42.39640 18.73297 19 ft 10 kts
2026-05-06 19:05 42.39701 18.73238 19 ft 13 kts 319°
2026-05-06 19:05 42.39787 18.73136 19 ft 20 kts 319°
2026-05-06 19:05 42.39911 18.72991 18 ft 25 kts 319°
2026-05-06 19:05 42.40042 18.72837 19 ft 25 kts 319°
2026-05-06 19:06 42.40170 18.72683 21 ft 23 kts 318°
2026-05-06 19:06 42.40287 18.72542 22 ft 22 kts 319°
2026-05-06 19:06 42.40396 18.72414 21 ft 20 kts 319°
2026-05-06 19:06 42.40501 18.72289 20 ft 20 kts 319°
2026-05-06 19:07 42.40620 18.72146 19 ft 25 kts 320°
2026-05-06 19:07 42.40749 18.71996 20 ft 23 kts 319°
2026-05-06 19:07 42.40869 18.71854 47 ft 19 kts 318°
2026-05-06 19:07 42.40947 18.71794 48 ft 11 kts 14°
2026-05-06 19:08 42.41012 18.71849 47 ft 10 kts 13°
2026-05-06 19:08 42.41067 18.71805 47 ft 9 kts 320°
2026-05-06 19:08 42.41113 18.71752 47 ft 8 kts 320°
2026-05-06 19:08 42.41153 18.71704 47 ft 7 kts 318°
2026-05-06 19:09 42.41187 18.71663 47 ft 6 kts 318°
2026-05-06 19:09 42.41222 18.71675 49 ft 6 kts 53°
2026-05-06 19:09 42.41210 18.71704 48 ft 3 kts 162°
2026-05-06 19:09 42.41206 18.71703 48 ft 0 kts 179°